STARLINK-35834

Last updated on Wed Dec 31 2025 00:02:06 GMT+0000 (Coordinated Universal Time)

1 66570U 25268P 25364.58335648 .00059487 00000+0 21568-2 0 9995 2 66570 43.0016 17.7824 0001309 242.2700 193.5290 15.27534458 6020
UTC large
Height (km)
Speed (km/s)
/
Latitude / Longitude
Inclination (degrees)
Orbital Period (minutes)
Azimuth
Elevation
Range (km)
Doppler Factor

Next 0 passes for location: London (51.5072 / 0.1276)

Sorry there are no passes over London.